Location: Copeville
(33.0796°N, 96.4155°W)
Time: 03:37:49
(UTC+00:00)

Sich 1 - Pass Details

Date: 04 July 2022
Orbit: 593 x 622 km, 82.5° (Epoch: 11 August)

Event Time Altitude Azimuth Distance (km) Brightness Sun altitude
Exits shadow 09:02:38 15° 134° (SE) 1,620 5.1 -23.3°
Maximum altitude 09:05:03 25° 90° (E) 1,240 5.0 -23.0°
Drops below altitude 10° 09:08:33 10° 35° (NE) 1,943 6.7 -22.5°
Sets 09:11:03 0° 22° (NNE) 2,845 7.7 -22.2°
